Погода в Ананиндеуа

Бразилия     1°21′16″S   48°17′34″W
темп.,
°C
ветер,
м/с
пор.,
м/с
влажн.,
%
обл.,
%
осадки,
мм/ч
давл.,
гПа
погр.,
м
27 февраля, сб
сб2700:00+23св2897100 1.6 1011262
03:00+23св1597100 1.6 1009198
06:00+23в1198100 0.0 100963
09:00+26св268869 0.8 1011563
12:00+29св247563 1.4 1011943
15:00+27ссв248946 5.5 1007677
18:00+25св269549 3.8 1007385
21:00+24св289770 6.4 1010358
28 февраля, вс
вс2800:00+23всв1698100 0.1 1010250
03:00+23в1599100 3.3 1008190
06:00+22вюв139975 0.8 1008108
09:00+26в279264 2.7 1010514
12:00+29всв257224 2.4 1009966
15:00+28св247829 4.5 1006766
18:00+25св269523 4.5 1006253
21:00+23св179752 5.3 1008308
1 марта, пн
пн100:00+23всв2798100 0.1 1008298
03:00+23всв169999 0.2 1006250
06:00+23в149995 0.0 1007163
09:00+26в248674 0.0 1009572
12:00+28св248111 2.3 1008786
15:00+28ссв24866 5.6 1005706
18:00+26св279227 2.5 1006603
21:00+23св289763 5.8 1008325
2 марта, вт
вт200:00+23всв1498100 0.8 1009148
03:00+23всв1598100 3.8 1007185
06:00+23ююв1199100 0.1 100852
09:00+26вюв138799 0.1 1010405
12:00+30всв256573 0.7 10101383
15:00+28всв248446 4.1 1007744
18:00+25св269559 4.2 1008343
21:00+23всв289879 6.6 1010371
3 марта, ср
ср300:00+23всв149891 0.0 1012179
03:00+22в139986 0.0 101093
06:00+22в139985 0.0 1010117
09:00+26в278665 0.0 1013699
12:00+28всв358723 2.3 1012785
15:00+28всв368316 5.7 1009879
18:00+25св279083 1.1 1009487
21:00+23св299789 1.3 1012405